Temperature
7 6 6 6 7 8 7 7 7 7 7 7 7 7 7 7 7 7 7 8 8 9 9 9 9 9 9 9 9 9 9 8 8 8 8 8 8 8 8 8 8 8 8 7
6 6 6 6 7 7 7 7 6 7 7 7 6 6 6 6 6 7 7 8 8 8 8 8 8 8 8 8 8 8 8 8 8 8 8 8 8 8 8 8 7 7 7 7
6 6 6 7 6 7 6 6 6 6 6 6 6 6 6 6 6 7 7 8 8 8 8 8 8 8 8 8 8 8 8 8 8 8 7 7 7 7 7 7 7 7 7 6
5 6 6 6 6 6 6 6 6 6 6 5 5 5 6 5 5 5 6 7 7 8 8 8 8 8 8 8 8 8 8 7 7 7 7 7 7 7 7 7 7 7 6 6
5 5 6 6 6 6 6 5 5 5 5 4 4 4 5 5 5 5 5 6 7 7 8 8 8 8 8 8 7 7 7 7 7 7 7 7 7 7 7 6 6 6 6 6
5 5 5 5 5 5 4 4 4 3 3 4 4 4 5 4 5 5 5 6 6 7 7 7 7 7 7 7 7 7 7 7 6 6 6 6 6 6 6 6 6 6 6 5
5 5 5 5 5 5 5 4 4 4 3 3 3 3 4 4 4 4 4 5 6 6 7 7 7 7 7 7 7 6 6 6 6 6 6 6 6 6 5 5 5 5 5 5
4 4 4 4 4 4 4 4 4 4 3 3 3 3 4 4 4 4 5 5 5 6 6 6 7 7 7 7 6 6 6 6 6 6 5 5 5 5 5 5 5 5 5 5
3 4 4 4 4 4 3 3 3 2 1 2 2 2 3 4 3 3 4 4 4 5 5 6 6 6 6 6 6 5 5 5 5 5 5 5 5 5 5 4 4 4 4 4
3 3 3 3 4 3 3 2 2 2 3 3 3 3 3 4 3 2 2 3 4 4 5 5 5 5 5 5 5 5 5 5 5 4 4 4 4 4 4 4 4 4 4 4
2 2 2 2 3 2 2 2 2 1 2 3 3 4 3 3 3 2 2 3 4 4 4 5 5 5 5 5 5 4 4 4 4 4 4 4 4 4 4 4 4 4 4 3
1 1 1 1 2 2 2 2 1 2 1 1 1 3 4 2 2 2 2 3 3 4 4 4 4 4 4 4 4 4 4 4 4 4 3 3 3 3 3 4 4 3 3 3
1 0 1 2 2 1 1 1 1 0 0 -0 1 3 3 1 2 2 2 3 3 3 4 4 3 3 3 3 3 3 3 3 3 3 3 3 3 3 3 3 3 3 3 3
1 -0 1 3 2 1 0 0 0 0 0 -0 1 2 3 2 1 1 2 2 3 3 3 3 3 3 2 2 2 2 2 2 2 2 2 2 2 2 2 2 2 2 2 2
0 -0 -1 -0 0 0 0 0 -0 0 0 1 1 1 2 2 1 1 2 2 2 2 2 2 2 2 2 2 2 2 2 2 2 2 2 2 2 2 2 2 2 2 2 2
-1 -1 -1 -1 -0 -0 -0 -0 0 0 0 0 1 1 1 1 1 1 1 1 1 1 2 2 1 1 1 1 1 1 1 1 1 1 1 1 1 1 2 2 2 2 1 1
-2 -2 -1 -0 -1 -0 -0 -0 -0 -1 -1 -0 1 1 1 0 -0 0 1 1 1 1 1 1 1 1 1 0 0 0 1 1 1 1 1 1 1 1 1 1 1 1 1 1
-2 -2 -2 -2 -1 0 1 -0 -1 -1 -1 -1 -0 -0 -0 -0 0 1 1 1 1 1 1 1 1 1 0 0 -0 -0 0 0 0 0 1 1 1 1 1 1 1 1 0 0
-3 -2 -2 -2 -1 -1 0 -1 -1 -1 -1 -1 -1 -1 -1 -1 -0 0 1 1 1 1 0 0 0 0 -0 -0 -0 -0 -0 -0 -0 0 0 0 0 0 0 0 0 0 0 -0
-3 -3 -2 -2 -1 -0 1 -1 -1 -1 -1 -1 -1 -1 -2 -2 -1 -1 1 1 0 0 0 -0 -0 -0 -0 -0 -0 -0 -0 -0 -0 -0 -0 -0 -0 -0 -0 -0 -0 -0 -0 -0
-3 -3 -3 -3 -2 -1 -1 -2 -1 0 0 -0 -1 -1 -2 -2 -1 0 0 -0 -0 -0 -0 -0 -1 -1 -1 -1 -1 -1 -1 -1 -1 -1 -1 -1 -1 -1 -1 -1 -1 -1 -1 -1
-3 -3 -3 -3 -2 -0 -2 -2 -1 -1 -0 -1 -1 -1 -1 -1 -0 -0 -1 -1 -1 -1 -1 -1 -1 -1 -1 -1 -1 -1 -1 -1 -1 -1 -1 -1 -1 -1 -1 -1 -1 -1 -1 -1
-4 -3 -3 -3 -1 -2 -2 -1 -1 -1 -1 -1 -1 -1 -1 -1 -1 -1 -1 -1 -2 -2 -1 -2 -2 -1 -1 -1 -2 -2 -2 -2 -2 -2 -2 -2 -2 -2 -2 -2 -2 -2 -2 -2
-5 -5 -4 -4 -4 -3 -2 -1 -1 -1 -1 -1 -1 -1 -1 -1 -1 -2 -2 -2 -2 -2 -2 -2 -2 -2 -2 -2 -2 -2 -2 -2 -2 -2 -2 -2 -2 -2 -2 -2 -2 -2 -2 -2
-4 -5 -5 -5 -4 -3 -2 -1 -1 -1 -1 -1 -1 -1 -2 -2 -2 -2 -2 -2 -2 -2 -3 -3 -2 -2 -2 -2 -3 -3 -3 -3 -3 -3 -3 -3 -3 -3 -3 -3 -3 -3 -3 -3
-5 -5 -4 -3 -3 -3 -2 -1 -1 -1 -2 -2 -2 -2 -2 -2 -3 -3 -3 -3 -3 -3 -3 -3 -3 -3 -3 -3 -3 -3 -3 -3 -4 -4 -4 -4 -4 -4 -4 -3 -3 -3 -3 -3
Wind_Speed
2 3 4 7 7 4 4 4 4 5 2 2 7 9 9 6 4 6 6 6 7 7 4 2 2 2 2 2 2 2 3 3 3 2 2 2 2 1 1 1 1 2 1 1
3 3 4 3 4 3 3 3 3 3 1 2 5 9 8 6 7 7 7 8 7 5 3 3 2 2 2 3 3 3 3 4 3 3 3 2 2 2 2 1 1 2 2 2
5 3 3 4 3 3 4 5 4 3 3 2 4 8 5 4 4 4 5 6 6 7 7 5 4 4 3 3 4 3 4 4 4 3 2 2 1 0 1 1 2 2 3 3
2 1 3 4 3 5 5 3 3 2 0 3 1 6 7 5 5 6 6 5 6 5 5 5 4 4 4 4 3 3 3 3 3 3 4 4 4 4 4 3 2 2 3 3
3 2 4 4 4 4 3 2 2 1 2 2 2 4 9 2 5 7 6 6 5 4 4 4 4 4 4 3 2 2 2 3 3 4 5 5 4 4 2 2 2 2 2 2
1 1 2 3 1 3 4 4 4 4 3 4 6 6 8 5 6 5 5 6 5 4 3 3 3 2 2 2 1 2 2 3 3 4 4 5 5 4 3 3 3 2 2 2
1 1 0 2 3 2 4 5 2 2 1 7 3 5 9 6 5 5 6 6 4 3 3 3 3 2 2 3 3 3 4 4 4 4 4 5 5 5 6 5 4 3 3 3
3 4 3 2 4 4 4 6 6 5 5 5 2 7 7 4 3 3 3 2 1 1 2 2 3 3 4 4 4 4 4 4 4 4 4 4 4 4 4 5 4 4 4 4
5 4 1 0 1 6 5 4 4 4 1 3 6 6 8 2 2 2 2 2 2 2 3 3 4 3 4 4 4 4 5 5 4 5 4 4 4 4 5 4 4 4 4 4
5 3 2 1 2 3 4 6 4 4 3 4 5 5 5 4 4 3 2 2 3 3 3 3 4 4 4 3 3 3 4 5 5 5 5 4 4 5 5 4 4 4 4 4
3 4 1 0 4 5 4 3 3 4 3 4 4 6 4 5 5 4 4 3 3 4 4 4 4 3 3 3 2 3 3 3 3 4 4 4 4 4 4 4 5 4 4 4
3 4 2 4 2 2 4 5 6 5 4 4 3 7 2 3 3 3 3 3 3 4 3 3 3 3 3 3 3 3 3 3 4 4 3 4 4 3 4 4 4 4 4 4
5 5 1 2 2 0 2 3 4 4 3 4 5 7 2 1 2 2 3 3 3 4 4 4 4 4 4 4 4 4 4 4 4 3 3 3 3 3 4 4 4 4 4 4
4 4 6 9 6 5 4 4 5 5 5 6 9 10 8 6 5 4 4 4 3 3 3 3 4 4 5 4 4 4 5 4 3 3 3 4 4 4 4 4 3 3 4 4
4 3 4 4 3 3 5 7 8 9 9 9 10 10 12 9 6 5 4 3 3 3 3 3 4 5 5 5 5 5 5 4 3 3 3 4 4 3 3 3 3 3 3 4
3 3 2 3 3 4 6 8 11 11 10 11 11 13 11 6 3 3 4 3 4 4 4 4 5 5 6 6 5 5 5 5 3 3 4 4 3 2 3 3 3 3 3 3
4 5 3 4 2 1 7 9 10 7 7 8 13 12 5 4 5 5 5 4 5 4 4 5 5 6 6 6 5 5 5 5 4 4 4 3 3 3 3 3 3 3 3 3
6 5 3 1 1 7 7 3 7 8 8 8 7 6 4 5 5 5 5 4 4 4 5 5 5 6 6 5 5 5 4 4 4 4 4 3 3 3 3 3 3 3 3 4
5 6 3 3 4 7 7 3 5 6 7 6 9 7 4 1 3 4 3 3 4 5 5 5 6 6 6 5 4 3 4 4 3 4 4 3 3 3 3 3 4 3 3 4
3 3 3 3 3 6 6 2 2 3 5 4 6 7 5 1 3 5 3 3 4 4 4 4 4 4 5 5 3 2 3 3 4 4 4 4 3 3 4 4 3 3 3 4
3 2 4 5 5 8 5 2 4 4 6 3 4 5 4 5 6 4 3 4 4 4 4 4 4 4 4 4 2 2 3 4 5 4 3 3 3 3 3 3 3 3 3 3
7 6 5 5 5 8 2 5 6 6 2 2 3 4 4 5 4 3 3 4 4 4 4 4 3 4 4 3 2 3 4 4 4 3 3 3 3 3 3 2 3 2 2 2
7 7 6 8 7 3 4 5 4 2 3 3 3 3 3 3 4 4 4 4 4 4 4 3 3 4 4 3 2 3 4 4 3 3 4 4 3 3 2 2 2 2 2 2
3 2 3 4 6 5 4 4 3 3 4 3 3 3 2 4 4 4 4 4 4 4 4 3 3 3 4 4 3 3 4 3 3 3 4 3 3 3 3 2 2 2 2 2
5 4 3 5 6 4 5 5 5 4 3 2 2 2 3 3 4 4 4 4 4 4 3 2 3 4 5 4 4 4 3 2 3 3 3 3 3 3 3 3 2 2 2 2
5 6 6 7 6 5 5 4 3 3 3 3 3 3 3 3 4 4 4 4 3 3 3 3 3 4 5 4 4 4 3 2 2 3 3 2 2 2 2 2 3 4 3 5
Wind_Direction
72 101 192 203 191 175 163 177 228 252 268 246 250 264 269 266 241 232 229 228 229 232 236 215 200 187 179 174 177 190 188 192 175 174 179 183 205 215 224 194 187 177 155 155
70 232 224 156 149 146 165 190 235 277 302 257 275 274 265 244 235 231 226 224 222 227 227 218 201 178 184 199 203 198 199 196 197 196 190 182 180 206 216 215 195 202 189 183
176 226 160 142 145 170 210 201 212 241 336 358 326 296 262 255 240 244 234 224 219 214 216 218 210 208 201 209 217 214 210 205 208 192 160 132 108 73 220 238 235 223 208 199
207 237 147 152 187 176 230 213 188 202 33 292 33 287 276 258 267 246 239 234 230 225 218 217 213 216 218 223 222 217 211 210 213 192 182 184 200 221 229 226 227 230 211 208
223 176 160 189 208 167 186 103 127 157 175 300 254 236 280 272 253 253 240 232 234 232 220 217 219 219 224 225 221 223 207 212 215 205 199 201 219 227 226 217 219 234 231 218
232 223 178 187 114 131 122 76 62 55 79 264 225 202 276 239 229 248 243 237 236 242 242 240 237 225 229 218 217 220 214 226 223 213 209 210 220 226 223 231 227 235 244 248
314 299 277 119 104 84 107 104 39 339 285 249 195 211 253 255 232 227 237 238 234 230 229 241 243 235 233 226 223 219 214 229 229 220 222 223 221 216 217 224 223 226 238 248
184 256 224 177 163 166 175 152 171 207 228 272 228 233 255 268 264 255 247 239 277 297 279 264 258 253 246 238 229 223 225 234 228 224 232 232 224 219 225 222 218 222 231 236
186 235 351 124 109 137 149 181 158 137 161 263 258 274 295 270 298 327 332 358 315 299 305 307 304 291 268 251 241 232 232 241 237 233 235 235 226 222 226 226 223 231 235 232
161 206 278 312 84 32 148 146 119 143 183 251 277 264 256 266 263 287 294 285 289 299 301 299 300 295 292 280 271 258 247 242 243 238 235 239 232 230 229 223 226 231 232 227
147 159 293 96 190 183 128 143 148 149 177 188 259 269 229 222 217 226 245 260 282 296 299 299 302 299 299 308 302 282 267 261 257 250 246 244 244 237 227 225 230 229 228 223
154 132 206 242 250 198 175 177 157 174 221 204 222 268 269 219 231 230 257 282 296 296 304 312 319 325 326 319 316 305 288 271 260 251 249 251 251 243 233 233 234 226 227 230
145 131 104 341 333 304 209 197 176 150 145 183 207 263 315 4 326 291 272 284 298 307 320 331 340 340 330 320 313 305 296 284 276 259 248 255 254 247 243 242 238 230 229 233
143 158 192 209 218 186 209 208 178 159 191 216 231 255 283 292 293 295 292 285 287 298 314 327 328 327 325 322 316 309 302 297 287 267 251 251 250 245 244 245 242 239 234 234
141 199 224 246 250 210 225 223 201 206 211 218 245 249 265 270 264 265 267 277 294 308 318 315 314 314 318 321 319 312 304 301 295 280 263 258 256 249 246 243 243 245 245 246
148 181 197 273 253 235 258 247 222 225 228 237 256 265 267 265 264 269 262 259 276 289 294 300 306 310 310 309 308 307 303 300 297 284 277 272 261 256 251 245 246 248 255 258
167 156 172 253 288 340 265 235 212 214 216 211 235 248 260 267 262 252 253 254 259 264 281 291 294 294 295 297 297 296 296 299 292 285 287 281 262 259 259 255 250 250 252 253
164 160 167 194 96 237 248 204 194 213 236 221 236 257 249 246 261 260 245 237 255 268 279 285 288 291 291 291 296 296 302 299 289 289 288 284 273 268 270 261 253 255 261 254
164 157 158 171 219 267 284 235 181 196 255 227 230 255 265 300 339 303 253 231 255 267 273 276 279 282 287 290 292 300 309 303 294 290 288 284 274 270 269 267 265 267 268 271
92 131 156 175 202 239 254 227 187 141 270 245 220 240 247 179 271 270 275 301 301 296 289 288 292 293 293 293 297 299 302 299 290 287 285 285 278 271 269 267 269 273 269 269
137 157 190 205 229 258 255 193 134 174 252 271 224 229 213 214 236 264 297 304 301 302 302 300 296 298 291 292 300 294 299 289 289 292 293 293 288 282 276 277 271 271 277 280
178 176 190 178 214 253 200 143 184 228 269 252 238 230 225 246 266 278 288 294 305 313 314 313 315 315 311 304 299 297 295 298 306 307 306 300 296 291 292 285 284 277 264 267
198 192 189 196 217 256 183 205 237 246 252 257 247 249 237 259 270 280 287 291 298 305 312 318 314 315 316 312 302 294 300 310 316 315 309 306 304 300 295 285 282 285 273 262
239 198 189 242 261 262 257 263 278 258 246 261 261 259 250 261 268 276 284 294 302 305 310 316 319 313 313 316 311 293 301 312 311 305 303 305 302 304 308 301 286 274 269 263
211 176 199 248 270 294 277 257 260 270 270 276 289 269 250 242 268 273 281 287 290 296 306 308 301 299 304 315 318 312 311 318 309 303 302 307 303 298 303 305 293 279 266 255
198 191 197 235 236 221 254 263 257 258 269 267 277 295 290 258 260 276 281 281 279 286 299 306 303 302 306 313 314 316 316 310 304 302 303 301 302 301 303 308 317 311 296 300
Height
1495 1500 1502 1501 1501 1503 1505 1509 1510 1509 1506 1507 1506 1503 1499 1498 1499 1498 1498 1499 1499 1500 1502 1503 1505 1505 1506 1507 1508 1509 1510 1511 1512 1513 1513 1514 1515 1516 1516 1517 1517 1517 1518 1518
1499 1500 1498 1499 1501 1503 1505 1508 1509 1507 1506 1506 1506 1502 1497 1496 1495 1494 1495 1495 1496 1497 1499 1500 1502 1503 1504 1505 1506 1507 1507 1508 1509 1510 1510 1511 1512 1513 1513 1514 1514 1514 1515 1515
1497 1499 1497 1499 1502 1504 1505 1507 1508 1508 1507 1507 1507 1500 1495 1492 1491 1492 1492 1492 1493 1494 1495 1497 1498 1500 1501 1502 1503 1504 1505 1505 1506 1507 1507 1508 1509 1509 1510 1510 1510 1511 1511 1511
1498 1497 1497 1499 1501 1501 1505 1504 1505 1507 1510 1514 1511 1511 1495 1492 1491 1489 1489 1489 1489 1491 1492 1494 1495 1496 1498 1499 1500 1501 1502 1502 1503 1504 1504 1504 1504 1505 1505 1506 1506 1507 1507 1507
1497 1496 1497 1498 1499 1500 1503 1504 1506 1509 1512 1517 1515 1516 1497 1492 1490 1487 1486 1486 1487 1488 1489 1490 1492 1493 1495 1496 1497 1498 1498 1499 1500 1500 1501 1501 1501 1501 1502 1502 1503 1503 1503 1504
1496 1495 1496 1496 1498 1499 1502 1506 1510 1515 1517 1519 1512 1515 1499 1493 1486 1484 1483 1483 1484 1485 1486 1488 1489 1491 1492 1493 1494 1494 1495 1495 1496 1497 1497 1497 1497 1497 1498 1498 1498 1499 1499 1500
1498 1496 1495 1495 1499 1501 1502 1509 1518 1518 1523 1516 1511 1510 1497 1484 1482 1481 1480 1480 1481 1482 1484 1485 1486 1487 1488 1489 1489 1490 1491 1491 1492 1492 1493 1493 1493 1493 1494 1494 1494 1495 1495 1495
1500 1500 1495 1495 1496 1500 1502 1505 1514 1516 1518 1513 1511 1507 1490 1481 1479 1479 1479 1479 1479 1481 1482 1483 1483 1484 1485 1485 1486 1486 1487 1487 1488 1488 1488 1489 1489 1489 1490 1490 1490 1491 1491 1491
1498 1498 1495 1494 1494 1497 1502 1506 1507 1517 1522 1520 1509 1501 1487 1479 1478 1478 1477 1477 1478 1479 1480 1480 1481 1482 1482 1482 1483 1483 1483 1483 1484 1484 1484 1485 1485 1485 1486 1486 1487 1487 1487 1487
1494 1500 1496 1495 1495 1497 1498 1503 1510 1514 1514 1510 1502 1500 1489 1480 1479 1478 1478 1477 1477 1478 1478 1478 1479 1479 1479 1479 1480 1480 1480 1479 1480 1480 1481 1481 1481 1481 1482 1482 1482 1482 1483 1483
1493 1499 1500 1498 1497 1498 1501 1504 1505 1510 1512 1511 1508 1493 1480 1478 1476 1477 1476 1476 1476 1476 1476 1476 1476 1476 1476 1476 1477 1476 1476 1476 1476 1476 1476 1476 1477 1477 1477 1477 1478 1478 1478 1478
1493 1499 1503 1500 1496 1496 1496 1498 1502 1506 1510 1511 1508 1492 1475 1475 1474 1474 1475 1475 1475 1475 1475 1475 1474 1473 1473 1473 1473 1473 1473 1472 1472 1472 1472 1472 1472 1472 1472 1473 1473 1474 1473 1473
1491 1498 1502 1499 1501 1499 1498 1497 1499 1502 1507 1511 1506 1489 1475 1474 1473 1473 1474 1473 1473 1473 1473 1472 1472 1471 1470 1470 1470 1469 1469 1468 1468 1468 1468 1468 1468 1468 1468 1468 1468 1469 1469 1469
1487 1494 1493 1490 1488 1493 1496 1496 1497 1500 1503 1504 1496 1483 1475 1474 1473 1473 1472 1472 1471 1471 1471 1470 1469 1469 1468 1468 1467 1466 1465 1465 1464 1464 1464 1463 1463 1463 1464 1464 1464 1464 1464 1464
1486 1492 1493 1490 1489 1491 1490 1490 1492 1493 1492 1492 1483 1482 1473 1472 1472 1471 1471 1470 1470 1469 1468 1468 1467 1467 1466 1465 1464 1463 1462 1462 1461 1460 1460 1459 1459 1459 1460 1459 1459 1459 1459 1459
1486 1491 1493 1492 1489 1489 1487 1485 1485 1486 1486 1484 1480 1476 1469 1469 1469 1469 1468 1468 1467 1466 1466 1465 1465 1464 1463 1462 1461 1460 1459 1458 1458 1457 1456 1456 1456 1456 1455 1455 1455 1455 1454 1454
1486 1490 1491 1490 1490 1487 1485 1478 1479 1480 1478 1477 1475 1469 1466 1467 1467 1466 1465 1465 1464 1464 1464 1463 1462 1461 1460 1459 1458 1456 1455 1455 1454 1453 1453 1453 1452 1452 1452 1451 1451 1450 1450 1449
1483 1487 1491 1493 1492 1488 1471 1469 1470 1472 1470 1470 1467 1465 1464 1464 1463 1463 1463 1462 1461 1461 1461 1460 1459 1458 1457 1456 1455 1454 1452 1451 1451 1450 1449 1449 1449 1448 1448 1447 1447 1446 1445 1445
1477 1483 1489 1491 1489 1480 1471 1467 1469 1470 1467 1464 1464 1462 1462 1462 1461 1460 1460 1460 1459 1459 1458 1457 1456 1454 1453 1452 1451 1450 1449 1448 1447 1446 1446 1446 1445 1445 1444 1443 1443 1442 1441 1440
1478 1480 1486 1488 1485 1479 1465 1464 1463 1467 1466 1459 1458 1459 1459 1461 1463 1458 1457 1457 1456 1455 1454 1453 1452 1451 1450 1448 1448 1446 1445 1445 1444 1443 1443 1442 1442 1441 1440 1439 1439 1438 1437 1436
1481 1483 1485 1485 1482 1473 1464 1462 1463 1469 1462 1456 1456 1456 1457 1458 1457 1455 1454 1454 1453 1452 1451 1450 1449 1448 1447 1445 1444 1443 1442 1442 1441 1440 1439 1439 1438 1438 1437 1436 1435 1434 1433 1432
1475 1479 1482 1482 1480 1469 1461 1461 1462 1459 1455 1454 1453 1453 1453 1453 1453 1452 1452 1451 1450 1449 1448 1447 1445 1444 1444 1443 1442 1440 1440 1439 1438 1437 1436 1436 1435 1434 1433 1432 1431 1430 1430 1429
1469 1468 1468 1468 1465 1458 1456 1456 1455 1455 1454 1452 1452 1451 1451 1450 1450 1449 1448 1448 1447 1446 1445 1444 1442 1441 1441 1440 1439 1438 1437 1436 1435 1434 1433 1432 1432 1431 1430 1429 1428 1427 1426 1425
1465 1464 1465 1465 1458 1455 1454 1453 1453 1453 1451 1450 1450 1449 1449 1448 1447 1446 1446 1445 1444 1443 1442 1441 1440 1438 1438 1437 1436 1435 1434 1433 1432 1431 1430 1429 1428 1427 1427 1426 1425 1424 1423 1423
1459 1461 1462 1460 1455 1453 1450 1450 1450 1449 1449 1448 1448 1447 1446 1445 1444 1444 1443 1442 1441 1440 1440 1439 1437 1436 1435 1434 1433 1433 1431 1430 1429 1428 1427 1426 1425 1424 1424 1423 1423 1422 1421 1421
1454 1456 1456 1452 1449 1450 1448 1447 1447 1447 1446 1446 1445 1444 1444 1443 1442 1441 1440 1440 1439 1438 1437 1436 1435 1434 1433 1432 1431 1430 1429 1428 1426 1425 1424 1424 1423 1422 1421 1421 1420 1419 1419 1418